Weather History for LGBL - January, 2013

Change the Weather History Date:

Thursday, January 17, 2013

  Actual Average Record
Temperature  
Mean Temperature 49 °F -  
Max Temperature 59 °F - - ()
Min Temperature 39 °F - - ()
Degree Days  
Heating Degree Days 16    
Moisture  
Dew Point 39 °F    
Average Humidity 68    
Maximum Humidity 81    
Minimum Humidity 55    
Precipitation  
Precipitation 0.00 in - - ()
Sea Level Pressure  
Sea Level Pressure 29.65 in    
Wind  
Wind Speed 5 mph ()    
Max Wind Speed 15 mph    
Max Gust Speed -    
Visibility 6.2 miles    
Events      
T = Trace of Precipitation, MM = Missing Value Source: Averaged Metar Reports

Daily Weather History Graph

Daily Weather History Graph

Search for Another Location

Airport or City:

Trip Planner

Search our weather history database for the weather conditions in past years. The results will help you decide how hot, cold, wet, or windy it might be!

Date:

Astronomy

Jan. 17, 2013 Rise Set
Actual Time 7:45 AM EET 5:32 PM EET
Civil Twilight 7:16 AM EET 6:01 PM EET
Nautical Twilight 6:43 AM EET 6:34 PM EET
Astronomical Twilight 6:11 AM EET 7:06 PM EET
Moon 10:46 AM EET (1/17) No Moon Set
Length of Visible Light 10h 44m
Length of Day
9h 46m
Waxing Crescent, 34% of the Moon is Illuminated
Jan 17
Waxing Crescent
Jan 19
First Quarter
Jan 27
Full
Feb 3
Last Quarter
Feb 10
New

Hourly Weather History & Observations

Time (EET) Temp. Windchill Dew Point Humidity Pressure Visibility Wind Dir Wind Speed Gust Speed Precip Events Conditions
12:50 AM 48.2 °F - 35.6 °F 62% 29.62 in 6.2 mi West 4.6 mph - N/A   Mostly Cloudy
1:50 AM 46.4 °F 42.9 °F 35.6 °F 66% 29.62 in 6.2 mi WNW 6.9 mph - N/A   Scattered Clouds
2:50 AM 44.6 °F 42.2 °F 35.6 °F 71% 29.65 in 6.2 mi West 4.6 mph - N/A   Scattered Clouds
3:50 AM 44.6 °F 42.2 °F 35.6 °F 71% 29.65 in 6.2 mi WNW 4.6 mph - N/A   Partly Cloudy
4:50 AM 42.8 °F 40.1 °F 35.6 °F 76% 29.65 in 6.2 mi North 4.6 mph - N/A   Partly Cloudy
5:20 AM 42.8 °F 40.1 °F 35.6 °F 76% 29.65 in 6.2 mi NE 4.6 mph - N/A   Partly Cloudy
5:50 AM 44.6 °F 42.2 °F 35.6 °F 71% 29.65 in 6.2 mi WSW 4.6 mph - N/A   Partly Cloudy
6:20 AM 42.8 °F - 35.6 °F 76% 29.65 in 6.2 mi Calm Calm - N/A   Partly Cloudy
6:50 AM 39.2 °F - 33.8 °F 81% 29.68 in 6.2 mi Calm Calm - N/A   Partly Cloudy
7:20 AM 39.2 °F - 33.8 °F 81% 29.68 in 6.2 mi Calm Calm - N/A   Partly Cloudy
7:50 AM 39.2 °F - 33.8 °F 81% 29.68 in 6.2 mi Calm Calm - N/A   Scattered Clouds
8:20 AM 39.2 °F - 33.8 °F 81% 29.68 in 6.2 mi Calm Calm - N/A   Scattered Clouds
8:50 AM 41.0 °F - 35.6 °F 81% 29.71 in 6.2 mi Calm Calm - N/A   Mostly Cloudy
9:20 AM 42.8 °F - 35.6 °F 76% 29.71 in 6.2 mi Calm Calm - N/A   Mostly Cloudy
9:50 AM 48.2 °F - 41.0 °F 76% 29.71 in 6.2 mi Calm Calm - N/A   Scattered Clouds
10:50 AM 51.8 °F - 41.0 °F 67% 29.71 in 6.2 mi Calm Calm - N/A   Scattered Clouds
11:20 AM 53.6 °F - 42.8 °F 67% 29.71 in 6.2 mi East 4.6 mph - N/A   Mostly Cloudy
11:50 AM 55.4 °F - 42.8 °F 63% 29.71 in 6.2 mi ENE 8.1 mph - N/A   Mostly Cloudy
12:20 PM 55.4 °F - 42.8 °F 63% 29.68 in 6.2 mi ENE 8.1 mph - N/A   Mostly Cloudy
12:50 PM 55.4 °F - 41.0 °F 58% 29.68 in 6.2 mi NE 4.6 mph - N/A   Mostly Cloudy
1:20 PM 55.4 °F - 41.0 °F 58% 29.68 in 6.2 mi NE 4.6 mph - N/A   Mostly Cloudy
1:50 PM 55.4 °F - 42.8 °F 63% 29.68 in 6.2 mi ENE 5.8 mph - N/A   Mostly Cloudy
2:50 PM 57.2 °F - 42.8 °F 59% 29.65 in 6.2 mi NE 5.8 mph - N/A   Mostly Cloudy
3:20 PM 59.0 °F - 44.6 °F 59% 29.65 in 6.2 mi NE 9.2 mph - N/A   Mostly Cloudy
3:50 PM 59.0 °F - 42.8 °F 55% 29.62 in 6.2 mi ESE 9.2 mph - N/A   Mostly Cloudy
4:20 PM 57.2 °F - 41.0 °F 55% 29.62 in 6.2 mi SE 15.0 mph - N/A   Mostly Cloudy
4:50 PM 57.2 °F - 42.8 °F 59% 29.62 in 6.2 mi SE 13.8 mph - N/A   Mostly Cloudy
5:20 PM 57.2 °F - 41.0 °F 55% 29.62 in 6.2 mi SE 13.8 mph - N/A   Mostly Cloudy
5:50 PM 55.4 °F - 41.0 °F 58% 29.62 in 6.2 mi SE 13.8 mph - N/A   Mostly Cloudy
6:20 PM 53.6 °F - 41.0 °F 62% 29.62 in 6.2 mi SE 13.8 mph - N/A   Mostly Cloudy
6:50 PM 53.6 °F - 42.8 °F 67% 29.65 in 6.2 mi SE 10.4 mph - N/A   Mostly Cloudy
7:20 PM 53.6 °F - 42.8 °F 67% 29.65 in 6.2 mi SE 13.8 mph - N/A   Mostly Cloudy
7:50 PM 53.6 °F - 42.8 °F 67% 29.62 in 6.2 mi South 9.2 mph - N/A   Mostly Cloudy
8:50 PM 51.8 °F - 42.8 °F 71% 29.62 in 6.2 mi WNW 5.8 mph - N/A   Mostly Cloudy
9:50 PM 51.8 °F - 41.0 °F 67% 29.62 in 6.2 mi WSW 6.9 mph - N/A   Mostly Cloudy
10:50 PM 55.4 °F - 41.0 °F 58% 29.59 in 6.2 mi SSW 10.4 mph - N/A   Mostly Cloudy
11:50 PM 48.2 °F - 41.0 °F 76% 29.59 in 6.2 mi West 4.6 mph - N/A   Mostly Cloudy